Regional Weather Roundup
Issued by NWS

Home | Current Version | Previous Version | Graphics & Text | Print | Product List | Glossary Off
Versions: 1 2 3 4 5 6 7 8 9 10 11 12 13 14 15 16 17 18 19 20 21 22 23 24 25 26 27 28 29 30 31 32 33 34 35 36 37 38 39 40 41 42 43 44 45 46 47 48 49 50

889
ASUS43 KMPX 311010
RWRMN
WEATHER ROUNDUP FOR MINNESOTA
NATIONAL WEATHER SERVICE TWIN CITIES/CHANHASSEN MN
500 AM CDT TUE MAY 31 2016


NOTE: "FAIR" INDICATES FEW OR NO CLOUDS BELOW 12,000 FEET WITH NO
SIGNIFICANT WEATHER AND/OR OBSTRUCTIONS TO VISIBILITY. N/A MEANS
CURRENT SKY AND/OR WEATHER CONDITIONS ARE NOT AVAILABLE.

MNZ060>063-068>070-311100-
   Twin Cities Metro

CITY           SKY/WX    TMP DP  RH WIND       PRES   REMARKS
TWIN CITIES    CLOUDY    67  57  70 SE10      29.87R
ST PAUL        CLOUDY    67  57  70 SE12      29.87R
CRYSTAL        CLOUDY    67  56  67 SE5       29.85R
BLAINE         CLOUDY    66  59  77 CALM      29.87R
EDEN PRAIRIE   CLOUDY    67  57  70 SE6       29.85R
SOUTH ST PAUL  CLOUDY    67  56  67 SE7       29.87R
LAKE ELMO      FAIR      64  57  77 SE6       29.89R
$$
MNZ001>005-007-008-013>017-022>024-027-028-311100-
   Northwest Minnesota

CITY           SKY/WX    TMP DP  RH WIND       PRES   REMARKS
BEMIDJI        LGT RAIN  56  55  94 SE17G25   29.82S
HALLOCK        CLOUDY    57  55  94 E22G28    29.69F
ROSEAU         LGT RAIN  54  48  82 E18G25    29.80F
WARROAD        RAIN      55  52  88 E17       29.85F
THIEF RVR FALL CLOUDY    59  54  82 E17G25    29.74S
CROOKSTON      MOCLDY    61  59  94 SE14      29.70S
FOSSTON        CLOUDY    57  57 100 E7        29.74F
DETROIT LAKES  CLOUDY    59  57  94 S6        29.76R
MOORHEAD       CLOUDY    61  57  88 S8        29.75R
PARK RAPIDS    LGT RAIN  61  58  90 E10       29.79F FOG
MAHNOMEN       CLOUDY    61  57  89 SE12      29.73R
$$
MNZ006-009>011-018-025>026-311100-
   North Central Minnesota

CITY           SKY/WX    TMP DP  RH WIND       PRES   REMARKS
BAUDETTE       LGT RAIN  56  48  74 SE15      29.86F
FLAG ISLAND    LGT RAIN  55  48  76 E7        29.88S
INTL FALLS     CLOUDY    54  46  74 E12       29.91F
WASKISH        DRIZZLE   57  48  72 E15G22    29.87R
BIG FORK       LGT RAIN  52  46  82 E12G18    29.89F
LONGVILLE      CLOUDY    54  52  94 E6        29.86R
GRAND RAPIDS   RAIN      49  46  90 VRB7      29.93S
CRANE LAKE     CLOUDY    52  45  76 CALM      29.99F
ORR            MOCLDY    52  43  71 SE7G18    29.92F
COOK           CLOUDY    48  43  81 E8        29.96F
WALKER         LGT RAIN  56  55  94 E10       29.84F
$$
MNZ012-019>021-037-311100-
   Northeast Minnesota

CITY           SKY/WX    TMP DP  RH WIND       PRES   REMARKS
DULUTH         CLOUDY    48  42  80 E22G30    29.98S
ELY            CLOUDY    48  39  71 SE13      30.01S
HIBBING        LGT RAIN  47  42  83 SE13      29.96S
EVELETH        CLOUDY    50  41  71 E12G20    29.98F
DULUTH HARBOR  CLOUDY    46  43  87 NE23      30.02R
TWO HARBORS    CLOUDY    50  43  76 NE16G28   30.01S
SILVER BAY     PTCLDY    46  39  76 NE12G18   30.04F
GRAND MARAIS     N/A     42  39  89 NE10      30.10S
G MARAIS ARPRT MOCLDY    43  37  81 E13G20    30.08S
$$
MNZ029>031-032-039>041-046>048-054>057-064-311100-
   West Central Minnesota

CITY           SKY/WX    TMP DP  RH WIND       PRES   REMARKS
FERGUS FALLS   CLOUDY    61  61 100 SE7       29.74R
WHEATON        CLOUDY    63  61  94 S6        29.78F
MORRIS         CLOUDY    63  61  94 S10       29.76S
ALEXANDRIA     CLOUDY    61  58  90 SE12      29.77F
ELBOW LAKE     CLOUDY    60  58  93 S10       29.77S
WADENA         DRIZZLE   57  57 100 E6        29.78R
GLENWOOD       DRIZZLE   61  57  88 SE9       29.77F
APPLETON       CLOUDY    63  59  88 SE8       29.76F
BENSON         CLOUDY    63  57  82 S8        29.77F
ORTONVILLE     CLOUDY    63  59  88 S6        29.77S
MADISON        DRIZZLE   63  61  94 S16       29.78R
WILLMAR        DRIZZLE   61  61 100 SE13      29.80F
$$
MNZ033>034-036-042>043-049>051-058-059-311100-
   Central Minnesota

CITY           SKY/WX    TMP DP  RH WIND       PRES   REMARKS
ST CLOUD       CLOUDY    63  60  90 S7        29.84S
SAUK CENTRE    LGT RAIN  59  58  96 E6        29.81F
PAYNESVILLE    LGT RAIN  62  62  99 SE3       29.82F
AITKIN         CLOUDY    55  48  76 E7        29.88R
PINE RIVER     CLOUDY    55  54  94 E10       29.88S
BRAINERD       RAIN      58  56  93 SE9G20    29.85R
STAPLES        LGT RAIN  61  59  94 CALM      29.80F
LONG PRAIRIE   LGT RAIN  59  57  94 NE7       29.82F
LITTLE FALLS   LGT RAIN  63  59  88 S6        29.83F
LITCHFIELD     LGT RAIN  63  63 100 CALM      29.83F
BUFFALO        LGT RAIN  65  57  73 CALM      29.87R
MAPLE LAKE     RAIN      64  61  91 CALM      29.87R
HUTCHINSON     RAIN      63  61  94 CALM      29.85S
$$
MNZ037-044-045-052-053-311100-
   East Central Minnesota

CITY           SKY/WX    TMP DP  RH WIND       PRES   REMARKS
PRINCETON      CLOUDY    64  57  77 CALM      29.87R
MORA           CLOUDY    59  54  82 E5        29.90R
CAMBRIDGE      LGT RAIN  66  55  68 CALM      29.86R
RUSH CITY      CLOUDY    64  55  73 NE5       29.87S
MOOSE LAKE     CLOUDY    45  43  93 NE8G17    29.92F
HINCKLEY       CLOUDY    54  52  94 NE8       29.90S
CLOQUET        LGT RAIN  46  43  87 E10G18    29.99R
MCGREGOR       CLOUDY    50  46  87 E17       29.90S
$$
MNZ071>073-080-081-089-090-097-098-311100-
   Southwest Minnesota

CITY           SKY/WX    TMP DP  RH WIND       PRES   REMARKS
MONTEVIDEO     DRIZZLE   61  61 100 CALM      29.79S
GRANITE FALLS  CLOUDY    63  59  87 SE12      29.79F
CANBY          RAIN      64  62  92 SW7       29.82R
MARSHALL       CLOUDY    62  60  93 S12       29.80R
REDWOOD FALLS  LGT RAIN  62  58  86 S9        29.80F
OLIVIA         LGT RAIN  68  64  88 SE9       29.80F
PIPESTONE      CLOUDY    61  59  94 SW8       29.84R
WINDOM         DRIZZLE   63  59  88 CALM      29.84F
WORTHINGTON    LGT RAIN  61  59  93 S7        29.85S
JACKSON        CLOUDY    61  59  94 S8        29.85F
TRACY          CLOUDY    62  62  97 S10       29.81S
SLAYTON        CLOUDY    61  60  97 S12       29.84R
$$
MNZ065>067-074>077-082>085-091>093-311100-
   South Central Minnesota

CITY           SKY/WX    TMP DP  RH WIND       PRES   REMARKS
MANKATO        CLOUDY    68  54  60 SW13G20   29.87R
NEW ULM        RAIN      63  61  94 S12       29.84F
ST JAMES       RAIN      57  55  94 S15       29.87S
FAIRMONT       CLOUDY    63  57  82 S9        29.88S
GLENCOE        LGT RAIN  64  61  91 CALM      29.85S
FARIBAULT      CLOUDY    66  57  72 S5        29.87R
OWATONNA       CLOUDY    66  55  68 S12       29.87R
WASECA         CLOUDY    64  54  68 S14       29.88R
ALBERT LEA     CLOUDY    64  57  77 S10G16    29.89R
$$
MNZ078>079-086>088-094>096-311100-
   Southeast Minnesota

CITY           SKY/WX    TMP DP  RH WIND       PRES   REMARKS
ROCHESTER      CLOUDY    63  56  78 S14       29.90S
RED WING       CLOUDY    68  55  64 SE7       29.87R
STANTON        CLOUDY    66  57  72 SE7       29.85S
DODGE CENTER   CLOUDY    64  55  72 S12       29.88S
WINONA         CLOUDY    63  59  88 CALM      29.91R
AUSTIN         CLOUDY    63  57  82 S7        29.90R
PRESTON        CLOUDY    62  54  73 S7        29.92S
$$
ABBREVIATIONS USED IN REMARKS
   TC - TEMPERATURES IN CELSIUS
  WCI - WIND CHILL INDEX
   HX - HEAT INDEX
  VSB - VISIBILITY
$$




USA.gov is the U.S. government's official web portal to all federal, state and local government web resources and services.